Probability
0 0 0 0 0 0 1 0 0 0 0 0 0 1 1 1 0 0 0 0 0 0 0 0 0 0 0 0 0 0 0 0 0 1 1 1 1 2 3 3 1 0 0
0 0 0 0 0 0 1 0 0 0 0 0 0 0 0 0 0 0 0 0 0 0 0 0 0 0 0 0 0 0 0 0 0 0 0 0 0 1 2 2 1 0 0
0 0 0 0 0 0 0 0 0 0 0 0 0 0 0 0 0 0 0 0 0 0 0 0 0 0 0 0 0 0 0 0 0 0 0 0 0 1 1 0 0 0 0
0 0 0 0 0 0 0 0 0 0 0 0 0 0 0 0 0 0 0 0 0 0 0 0 0 0 0 0 0 0 0 0 0 0 0 0 0 0 0 0 0 1 1
0 0 0 0 0 0 0 0 0 0 1 1 1 0 1 1 0 0 0 0 0 0 0 0 0 0 0 0 0 0 0 0 0 0 0 0 0 0 0 0 1 1 0
0 0 0 0 0 0 1 1 0 0 1 2 2 2 2 2 1 0 0 0 0 0 0 0 0 0 0 0 0 0 0 0 0 0 0 0 1 1 1 1 1 0 0
0 0 0 0 1 1 1 1 2 2 1 1 2 3 3 3 2 1 0 0 0 0 0 0 0 0 0 0 0 0 0 0 0 0 0 0 1 2 2 2 2 1 1
0 0 0 0 1 2 1 1 2 4 3 2 3 3 3 3 3 2 1 0 0 0 0 0 0 0 0 0 0 0 0 0 0 0 0 0 0 1 1 2 2 2 2
1 1 1 0 1 1 1 0 2 4 5 4 4 4 3 3 3 3 2 1 0 0 0 0 0 0 0 0 0 0 0 0 0 0 0 0 0 0 0 1 1 1 1
2 2 2 1 0 0 0 1 2 4 4 5 5 4 3 3 3 3 3 1 0 0 0 0 0 0 0 0 0 0 0 0 0 0 0 0 0 0 0 0 0 0 0
3 3 3 2 0 0 0 2 3 3 3 3 3 3 3 3 3 2 2 2 1 0 0 0 0 0 0 0 0 1 1 0 0 0 0 0 0 0 0 0 0 0 0
3 3 3 1 0 0 0 1 2 2 2 1 1 1 2 2 1 1 1 2 1 0 0 0 0 0 0 0 0 1 1 0 0 0 0 0 0 0 1 1 1 1 1
3 3 2 1 0 0 0 0 1 1 1 0 0 0 1 1 0 0 0 1 1 0 0 0 0 0 0 0 0 0 0 0 0 0 0 0 0 1 2 2 2 2 2
3 3 3 1 0 0 0 0 0 0 0 0 0 0 0 0 0 0 0 0 0 0 0 0 0 0 0 0 0 0 0 0 0 0 0 0 0 1 2 3 3 3 3
3 3 3 2 1 0 0 0 0 0 0 0 0 0 0 0 0 0 0 0 0 0 0 0 0 0 0 0 0 0 0 0 1 1 0 0 0 1 2 3 3 3 3
3 3 3 3 2 1 0 0 0 0 0 0 0 0 0 0 0 0 0 0 0 0 0 0 0 0 0 0 0 0 0 0 1 2 1 0 0 1 3 3 3 3 3
2 2 2 3 3 2 0 0 0 0 0 0 0 0 0 0 0 0 0 0 0 0 0 0 0 0 0 0 0 0 0 0 1 2 2 1 1 2 3 3 3 3 3
2 2 1 1 2 1 0 0 0 0 0 0 0 0 0 0 0 0 0 0 0 0 0 0 0 0 0 0 0 0 0 0 0 1 1 1 1 2 3 3 3 3 3
2 2 1 1 2 1 0 0 0 0 0 0 0 0 0 0 0 0 0 0 0 0 0 0 0 0 0 0 0 0 0 0 0 0 0 0 1 2 2 2 2 3 3
3 2 1 1 2 2 1 0 0 0 0 0 0 0 0 0 0 0 0 0 0 0 0 0 0 0 0 0 0 0 0 0 0 0 0 0 0 1 1 1 1 1 2
3 3 2 3 3 2 1 0 0 0 0 0 0 0 0 0 0 0 0 0 0 0 0 0 0 0 0 0 0 0 0 0 0 0 0 0 0 0 0 0 0 0 1
3 3 3 3 3 2 1 0 0 0 0 0 0 0 0 0 0 0 0 0 0 0 0 0 0 0 0 0 0 0 0 0 0 0 0 0 0 0 0 0 0 0 0
3 3 3 3 3 2 1 2 1 0 0 0 0 0 0 0 0 0 0 0 0 0 0 0 0 0 0 0 0 0 0 0 0 0 0 0 0 0 0 0 0 0 0
1 2 3 3 3 3 3 3 2 1 0 0 0 0 0 0 0 0 0 0 0 0 0 0 0 0 0 0 0 0 0 0 0 0 0 0 0 0 0 0 0 0 0
0 1 2 3 3 3 3 3 2 1 0 0 0 0 0 0 0 0 0 0 0 0 0 0 0 0 0 0 0 0 0 0 0 0 0 0 0 0 0 0 0 0 0
0 1 2 3 3 3 3 3 2 1 0 0 0 0 0 0 0 0 0 0 0 0 0 0 0 0 0 0 0 0 0 0 0 0 0 0 0 0 0 0 0 0 0
Wind_Speed
1 1 6 6 7 8 8 9 9 10 10 10 11 11 12 12 12 12 12 12 13 13 13 13 13 13 13 13 13 13 13 13 13 12 11 11 11 11 11 11 10 7 10
4 2 6 6 7 8 9 9 9 10 10 10 11 11 12 12 11 11 11 12 12 12 12 13 12 13 13 13 12 12 12 12 12 12 11 10 10 11 11 10 9 6 10
5 3 4 7 8 8 9 9 9 10 10 10 11 11 11 11 11 11 11 11 11 11 12 12 12 12 12 12 12 12 12 12 11 11 10 5 6 10 10 10 10 10 10
6 4 5 7 8 8 9 9 9 10 10 10 11 11 11 11 11 11 11 11 11 11 11 11 11 11 11 11 11 11 11 11 11 10 6 5 5 10 11 10 9 9 10
5 4 5 8 8 8 8 9 9 9 9 10 10 11 10 11 11 11 11 10 10 10 10 11 10 11 11 11 11 11 11 11 11 9 5 5 4 9 11 10 9 9 9
5 4 5 8 8 8 8 8 9 9 9 10 10 10 10 10 10 11 11 11 10 10 10 10 10 10 10 10 10 10 11 11 9 5 5 4 4 9 10 10 9 9 9
5 3 5 8 8 7 8 8 9 9 9 9 10 10 10 10 10 10 10 10 10 10 9 9 9 9 10 10 10 10 10 10 6 5 4 4 5 9 10 9 9 9 8
6 4 4 7 8 7 7 7 8 9 9 9 9 9 10 10 10 9 9 9 9 9 9 8 8 9 9 9 9 10 10 9 7 5 4 3 7 10 10 9 9 8 8
6 4 3 3 4 5 5 7 8 9 9 9 9 9 9 9 9 9 8 9 8 8 8 8 8 8 8 8 9 9 10 9 5 3 4 3 8 9 10 9 9 9 8
5 4 3 2 2 2 3 7 9 9 8 8 8 8 8 8 8 8 7 7 7 8 8 8 7 7 8 8 8 8 8 7 4 4 3 4 8 9 9 9 9 9 9
5 3 3 3 2 2 2 5 6 7 6 6 5 7 6 3 3 3 5 6 6 7 7 7 7 7 7 7 8 8 6 3 4 3 2 6 9 9 9 9 9 10 9
5 4 3 3 3 2 2 3 2 2 2 3 3 3 2 2 2 3 4 5 6 7 6 7 7 6 5 3 5 6 3 4 3 2 3 8 9 9 9 9 9 9 9
6 6 5 4 3 3 2 2 1 1 2 2 2 2 2 2 2 2 2 2 3 4 3 4 4 3 3 3 2 3 3 3 2 2 3 8 9 9 9 9 9 9 9
6 6 5 5 4 3 3 2 2 2 1 1 2 2 2 2 2 1 1 2 2 2 2 3 2 3 4 3 4 4 4 3 2 2 3 8 9 9 9 9 9 9 9
6 5 6 6 5 3 3 2 2 2 2 2 2 2 3 2 2 2 1 1 2 2 2 3 3 3 3 3 3 4 4 3 3 2 2 7 8 8 9 9 9 8 8
6 6 5 6 5 5 3 3 2 2 2 2 2 2 3 3 3 2 2 2 2 2 2 2 3 3 3 3 4 3 3 3 3 3 2 4 6 7 8 8 8 8 8
6 6 6 7 6 5 4 3 3 2 3 2 2 2 3 3 3 3 2 2 1 2 2 3 3 3 3 3 3 3 3 3 2 2 2 2 2 5 6 7 7 7 7
6 6 6 7 6 5 4 3 3 2 3 2 2 2 3 3 4 3 2 2 1 2 2 3 2 3 3 2 2 2 2 2 2 2 2 2 1 2 3 6 6 6 6
6 7 6 6 6 5 4 3 3 3 2 2 2 2 2 3 3 3 2 2 2 2 2 2 2 2 2 2 2 2 2 2 1 2 2 2 1 1 1 3 4 5 6
5 5 6 6 5 5 4 3 2 2 2 1 2 2 3 2 3 4 3 2 3 3 2 2 3 2 2 2 2 3 2 2 2 2 1 1 1 2 2 2 2 3 5
5 5 4 5 5 4 3 3 2 2 1 1 1 2 3 3 3 3 3 3 2 2 2 3 3 3 2 2 3 3 3 3 3 2 1 1 2 1 2 2 2 2 2
6 5 5 5 5 5 4 3 3 3 2 1 1 1 2 3 3 4 4 3 2 2 2 2 3 2 1 2 3 3 2 3 3 2 1 1 1 1 2 2 2 2 2
5 5 5 5 5 4 4 3 3 2 2 1 0 0 1 2 2 3 4 3 3 3 2 2 3 3 2 0 1 3 3 2 1 2 2 2 1 1 1 1 2 2 2
6 6 6 6 5 4 4 4 5 4 3 3 3 2 2 2 2 3 3 3 3 3 3 3 2 2 3 1 0 0 2 3 2 0 2 2 1 1 0 1 1 1 1
6 6 5 5 5 4 4 5 5 3 3 2 1 2 2 1 2 2 3 3 3 3 3 3 2 2 2 2 2 1 1 1 2 3 1 2 2 1 0 0 1 0 0
3 4 4 5 4 4 4 4 5 5 3 3 2 3 2 1 1 2 2 2 3 3 3 3 3 3 2 2 2 2 2 2 2 2 2 1 1 2 1 1 0 1 1
Wind_Direction
186 177 98 91 88 86 88 89 89 88 87 87 87 86 85 85 85 86 89 89 88 86 84 83 82 83 85 85 84 82 82 82 82 82 86 92 98 104 106 105 104 102 106
159 137 102 95 90 93 93 91 92 92 88 88 89 88 88 87 87 88 90 90 90 89 86 84 85 85 85 85 83 81 80 83 82 80 79 81 93 102 105 106 107 110 112
134 128 110 100 96 95 96 95 94 95 93 90 90 90 90 89 87 88 89 90 91 91 89 87 86 84 83 84 83 80 79 82 81 81 76 70 86 94 99 101 104 108 111
132 129 114 107 100 99 98 95 95 96 97 95 93 94 94 92 89 89 90 90 92 90 89 88 86 86 84 82 79 77 77 79 79 79 69 67 81 90 92 91 96 103 108
126 126 120 113 107 103 103 100 98 98 101 99 97 97 95 96 93 90 90 90 91 91 91 89 86 85 86 82 78 76 77 79 77 74 69 71 74 91 92 90 93 102 106
128 129 126 120 114 109 108 107 104 103 104 104 100 98 97 95 93 90 89 89 90 92 91 92 89 87 86 81 77 78 80 80 77 72 69 74 79 92 91 89 88 100 107
134 135 134 125 120 117 115 114 111 108 108 106 103 100 99 97 93 90 91 92 90 91 92 91 90 89 88 83 79 79 81 81 79 74 73 79 84 90 90 89 89 95 103
139 136 132 130 127 125 121 122 120 115 112 109 106 102 98 96 95 95 96 95 93 92 94 93 89 91 90 86 83 82 81 79 81 83 78 81 91 89 88 87 87 90 96
132 126 117 123 125 128 124 126 127 119 113 109 107 104 98 95 94 95 96 95 93 89 90 93 93 91 88 86 84 83 81 75 73 74 85 78 91 91 90 88 86 86 88
131 132 127 114 102 89 97 120 123 118 114 110 103 103 99 95 94 95 95 94 92 88 83 86 91 88 86 87 85 82 79 71 64 64 69 89 93 93 91 88 87 84 84
137 139 140 133 121 102 101 111 115 116 110 103 99 103 95 77 78 83 90 88 88 85 85 84 80 82 83 80 79 77 73 70 70 67 71 93 96 94 92 90 88 86 86
155 160 153 152 155 137 118 94 85 96 93 90 92 90 83 81 77 84 78 80 77 76 77 79 76 75 74 68 72 71 66 70 69 68 83 96 100 96 94 92 89 86 84
162 161 160 159 153 139 116 112 86 86 88 88 99 105 97 81 65 55 50 47 45 55 54 58 60 65 81 86 80 73 76 72 63 57 75 94 98 95 93 91 88 85 83
152 160 161 156 145 142 123 118 118 111 103 103 108 117 111 103 89 78 62 48 45 47 53 50 63 72 81 86 85 81 82 77 68 54 71 89 96 95 93 92 89 87 84
152 159 160 155 151 143 123 126 120 124 131 130 122 129 127 121 117 107 85 61 55 59 64 63 66 76 82 87 91 91 90 88 85 74 62 83 92 95 96 94 93 91 88
154 155 155 150 148 136 130 125 130 126 122 114 119 130 132 127 123 117 99 75 64 68 78 82 84 87 82 84 84 86 92 90 89 88 72 69 80 90 93 94 92 90 87
155 148 147 147 138 138 138 138 130 122 114 113 119 119 123 125 124 120 109 94 84 87 85 80 74 76 75 72 69 72 79 77 89 95 90 70 62 79 93 94 91 90 89
149 141 145 144 139 142 140 134 124 116 111 108 106 107 113 124 129 120 114 113 112 92 83 86 74 76 71 72 68 63 73 78 82 93 91 87 71 64 79 91 89 88 87
153 143 143 140 145 145 137 125 115 111 109 110 102 105 110 121 123 119 120 121 110 92 81 95 86 98 98 81 79 64 59 69 75 89 87 100 103 92 78 84 85 84 83
148 143 142 137 139 135 125 109 93 85 85 89 104 116 114 120 120 114 116 116 109 99 84 87 91 81 99 103 86 56 36 42 57 72 85 85 90 94 91 82 63 64 72
141 136 142 141 148 141 138 135 132 145 150 126 141 134 123 128 129 119 118 119 117 121 130 122 108 92 70 83 79 42 14 25 39 46 54 71 74 81 83 83 72 57 45
156 153 147 157 162 162 163 166 162 158 168 176 160 139 140 137 143 137 135 141 139 124 116 120 115 109 91 89 108 93 31 1 359 20 31 73 76 72 79 91 84 74 57
159 166 165 167 164 168 159 130 106 78 61 54 74 209 203 158 156 149 148 149 151 143 153 159 143 134 141 86 113 134 137 196 305 339 7 36 54 67 60 80 94 89 87
179 178 169 169 165 163 148 146 150 155 174 205 201 199 203 175 161 159 157 159 160 157 162 177 160 150 141 157 359 98 151 153 148 323 336 354 20 63 82 96 97 91 95
176 172 167 160 161 165 163 164 162 170 192 187 168 179 195 204 182 169 167 165 167 168 173 171 152 153 155 164 172 160 119 93 119 143 221 312 350 341 323 154 128 142 138
154 151 154 157 166 173 173 167 170 178 180 167 177 187 200 205 204 188 171 169 174 174 180 182 174 168 173 170 174 168 159 158 174 154 170 218 272 300 325 319 166 187 198